Location: Anuling
(14.1239°N, 120.8922°E)
Time: 01:41:21
(UTC+00:00)

GPS 2-17 Rocket1 - Pass Details

Date: 20 April 2026
Orbit: 544 x 613 km, 20.3° (Epoch: 19 May)

Event Time Altitude Azimuth Distance (km) Brightness Sun altitude
Rises 11:02:52 0° 278° (W) 2,836 8.4 -13.1°
Reaches altitude 10° 11:05:17 10° 271° (W) 1,941 6.9 -13.7°
Maximum altitude 11:09:35 42° 200° (SSW) 864 3.8 -14.7°
Enters shadow 11:12:15 21° 139° (SE) 1,378 4.4 -15.3°
